GW1268 Weather Reports


time (UTC)temp
C
wind
direction
speed
KPH
gust
KPH
rain 1hr
cm
rain 24hr
cm
rain mn
cm
humidity
%
barometer
mb
20260504020318 19 16 4.8 11.3 0.00 0.00 0.00 60 1015.3
20260504015317 19 4 6.4 19.3 0.00 0.00 0.00 60 1015.3
20260504014313 20 11 6.4 19.3 0.00 0.00 0.00 60 1015.4
20260504013311 19 7 6.4 17.7 0.00 0.00 0.00 61 1015.7
20260504012309 19 10 4.8 11.3 0.00 0.00 0.00 62 1015.5
20260504011306 19 7 4.8 11.3 0.00 0.00 0.00 63 1015.5
20260504010305 18 2 4.8 14.5 0.00 0.00 0.00 64 1015.6
20260504005304 18 5 6.4 14.5 0.00 0.00 0.00 65 1015.7
20260504004301 18 6 6.4 14.5 0.00 0.00 0.00 66 1015.5
20260504003259 18 12 3.2 11.3 0.00 0.00 0.00 67 1015.4
20260504002256 17 6 4.8 12.9 0.00 0.00 0.00 68 1015.5
20260504001254 16 7 4.8 19.3 0.00 0.00 0.00 69 1015.6
20260504000254 16 7 4.8 19.3 0.00 0.00 0.00 70 1015.6
20260503235251 16 1 6.4 11.3 0.00 0.00 0.00 70 1015.6
20260503234249 16 4 4.8 12.9 0.00 0.00 0.00 71 1015.7
20260503233246 15 1 4.8 14.5 0.00 0.00 0.00 72 1015.8
20260503232245 15 8 3.2 9.7 0.00 0.00 0.00 73 1015.8
20260503231243 15 1 3.2 14.5 0.00 0.00 0.00 74 1015.7
20260503230240 15 5 4.8 11.3 0.00 0.00 0.00 74 1015.8
20260503225239 14 4 3.2 9.7 0.00 0.00 0.00 75 1015.8
20260503222232 13 356 3.2 6.4 0.00 0.00 0.00 76 1016.1
20260503215226 13 4 3.2 6.4 0.00 0.00 0.00 77 1016.2
20260503213222 13 8 3.2 9.7 0.00 0.00 0.00 77 1015.8
20260503211219 13 1 3.2 6.4 0.00 0.00 0.00 77 1016.1
20260503210216 12 0 3.2 8.0 0.00 0.00 0.00 77 1016.0
20260503205214 12 6 3.2 8.0 0.00 0.00 0.00 77 1016.1
20260503203211 12 22 1.6 4.8 0.00 0.00 0.00 77 1015.7
20260503202209 12 41 1.6 3.2 0.00 0.00 0.00 77 1015.6
20260503201206 12 45 1.6 3.2 0.00 0.00 0.00 77 1015.7
20260503200205 12 30 1.6 3.2 0.00 0.00 0.00 77 1015.5
20260503194202 12 38 1.6 6.4 0.00 0.00 0.00 77 1015.6
20260503192157 12 6 1.6 6.4 0.00 0.00 0.00 77 1015.9
20260503191154 12 11 1.6 4.8 0.00 0.00 0.00 77 1016.0
20260503190152 12 22 1.6 4.8 0.00 0.00 0.00 77 1016.0
20260503185151 12 21 3.2 6.4 0.00 0.00 0.00 77 1015.9
20260503184148 12 11 1.6 4.8 0.00 0.00 0.00 77 1016.1
20260503183148 12 24 1.6 6.4 0.00 0.00 0.00 77 1015.9
20260503182146 12 55 1.6 6.4 0.00 0.00 0.00 76 1016.1
20260503180141 12 35 1.6 4.8 0.00 0.00 0.00 76 1016.3
20260503174138 12 17 1.6 8.0 0.00 0.00 0.00 76 1016.4
20260503173134 13 14 1.6 6.4 0.00 0.00 0.00 76 1016.5
20260503172133 13 14 1.6 3.2 0.00 0.00 0.00 76 1016.5
20260503171130 13 22 1.6 4.8 0.00 0.00 0.00 75 1016.5
20260503170129 13 24 1.6 8.0 0.00 0.00 0.00 75 1016.6
20260503160117 13 5 3.2 6.4 0.00 0.00 0.00 75 1016.8
20260503150107 14 12 1.6 4.8 0.00 0.00 0.00 75 1016.7